owner,sensor,date,latitude,longitude,vertical_datum,sea_water_temperature,qcFlag
Amerada Hess,ioos:station:wmo:42401:1,2020-07-01T00:04:00Z,27.5093,-90.5564,26.0,27.8,11111222
Amerada Hess,ioos:station:wmo:42401:1,2020-07-01T00:23:00Z,27.5093,-90.5564,26.0,27.8,11111222
Amerada Hess,ioos:station:wmo:42401:1,2020-07-01T00:43:00Z,27.5093,-90.5564,26.0,27.9,11111222
Amerada Hess,ioos:station:wmo:42401:1,2020-07-01T01:03:00Z,27.5093,-90.5564,26.0,28.0,11111222
Amerada Hess,ioos:station:wmo:42401:1,2020-07-01T01:23:00Z,27.5093,-90.5564,26.0,28.0,11111222
Amerada Hess,ioos:station:wmo:42401:1,2020-07-01T01:42:00Z,27.5093,-90.5564,26.0,27.9,11111222
Amerada Hess,ioos:station:wmo:42401:1,2020-07-01T02:02:00Z,27.5093,-90.5564,26.0,27.9,11111222
Amerada Hess,ioos:station:wmo:42401:1,2020-07-01T02:22:00Z,27.5093,-90.5564,26.0,27.8,11111222
Amerada Hess,ioos:station:wmo:42401:1,2020-07-01T02:42:00Z,27.5093,-90.5564,26.0,27.8,11111222
Amerada Hess,ioos:station:wmo:42401:1,2020-07-01T03:02:00Z,27.5093,-90.5564,26.0,27.8,11111222
Amerada Hess,ioos:station:wmo:42401:1,2020-07-01T03:22:00Z,27.5093,-90.5564,26.0,27.8,11111222
Amerada Hess,ioos:station:wmo:42401:1,2020-07-01T03:42:00Z,27.5093,-90.5564,26.0,27.9,11111222
Amerada Hess,ioos:station:wmo:42401:1,2020-07-01T04:02:00Z,27.5093,-90.5564,26.0,27.9,11111222
Amerada Hess,ioos:station:wmo:42401:1,2020-07-01T04:22:00Z,27.5093,-90.5564,26.0,27.9,11111222
Amerada Hess,ioos:station:wmo:42401:1,2020-07-01T04:42:00Z,27.5093,-90.5564,26.0,27.8,11111222
Amerada Hess,ioos:station:wmo:42401:1,2020-07-01T05:02:00Z,27.5093,-90.5564,26.0,27.8,11111222
Amerada Hess,ioos:station:wmo:42401:1,2020-07-01T05:22:00Z,27.5093,-90.5564,26.0,27.8,11111222
Amerada Hess,ioos:station:wmo:42401:1,2020-07-01T05:42:00Z,27.5093,-90.5564,26.0,27.7,11111222
Amerada Hess,ioos:station:wmo:42401:1,2020-07-01T06:02:00Z,27.5093,-90.5564,26.0,27.7,11111222
Amerada Hess,ioos:station:wmo:42401:1,2020-07-01T06:22:00Z,27.5093,-90.5564,26.0,27.7,11111222
Amerada Hess,ioos:station:wmo:42401:1,2020-07-01T06:42:00Z,27.5093,-90.5564,26.0,27.6,11111222
Amerada Hess,ioos:station:wmo:42401:1,2020-07-01T07:02:00Z,27.5093,-90.5564,26.0,27.6,11111222
Amerada Hess,ioos:station:wmo:42401:1,2020-07-01T07:22:00Z,27.5093,-90.5564,26.0,27.6,11111222
Amerada Hess,ioos:station:wmo:42401:1,2020-07-01T07:42:00Z,27.5093,-90.5564,26.0,27.5,11111222
Amerada Hess,ioos:station:wmo:42401:1,2020-07-01T08:02:00Z,27.5093,-90.5564,26.0,27.4,11111222
Amerada Hess,ioos:station:wmo:42401:1,2020-07-01T08:22:00Z,27.5093,-90.5564,26.0,27.3,11111222
Amerada Hess,ioos:station:wmo:42401:1,2020-07-01T08:42:00Z,27.5093,-90.5564,26.0,27.3,11111222
Amerada Hess,ioos:station:wmo:42401:1,2020-07-01T09:02:00Z,27.5093,-90.5564,26.0,27.3,11111222
Amerada Hess,ioos:station:wmo:42401:1,2020-07-01T09:22:00Z,27.5093,-90.5564,26.0,27.3,11111222
Amerada Hess,ioos:station:wmo:42401:1,2020-07-01T09:42:00Z,27.5093,-90.5564,26.0,27.5,11111222
Amerada Hess,ioos:station:wmo:42401:1,2020-07-01T10:02:00Z,27.5093,-90.5564,26.0,27.5,11111222
Amerada Hess,ioos:station:wmo:42401:1,2020-07-01T10:22:00Z,27.5093,-90.5564,26.0,27.6,11111222
Amerada Hess,ioos:station:wmo:42401:1,2020-07-01T10:42:00Z,27.5093,-90.5564,26.0,27.7,11111222
Amerada Hess,ioos:station:wmo:42401:1,2020-07-01T11:02:00Z,27.5093,-90.5564,26.0,27.6,11111222
Amerada Hess,ioos:station:wmo:42401:1,2020-07-01T11:22:00Z,27.5093,-90.5564,26.0,27.6,11111222
Amerada Hess,ioos:station:wmo:42401:1,2020-07-01T11:42:00Z,27.5093,-90.5564,26.0,27.7,11111222
Amerada Hess,ioos:station:wmo:42401:1,2020-07-01T12:01:00Z,27.5093,-90.5564,26.0,27.8,11111222
Amerada Hess,ioos:station:wmo:42401:1,2020-07-01T12:21:00Z,27.5093,-90.5564,26.0,27.8,11111222
Amerada Hess,ioos:station:wmo:42401:1,2020-07-01T12:41:00Z,27.5093,-90.5564,26.0,27.8,11111222
Amerada Hess,ioos:station:wmo:42401:1,2020-07-01T13:00:00Z,27.5093,-90.5564,26.0,27.7,11111222
Amerada Hess,ioos:station:wmo:42401:1,2020-07-01T13:20:00Z,27.5093,-90.5564,26.0,27.9,11111222
Amerada Hess,ioos:station:wmo:42401:1,2020-07-01T13:40:00Z,27.5093,-90.5564,26.0,27.9,11111222
Amerada Hess,ioos:station:wmo:42401:1,2020-07-01T14:00:00Z,27.5093,-90.5564,26.0,27.9,11111222
Amerada Hess,ioos:station:wmo:42401:1,2020-07-01T14:19:00Z,27.5093,-90.5564,26.0,27.9,11111222
Amerada Hess,ioos:station:wmo:42401:1,2020-07-01T14:39:00Z,27.5093,-90.5564,26.0,27.8,11111222
Amerada Hess,ioos:station:wmo:42401:1,2020-07-01T14:59:00Z,27.5093,-90.5564,26.0,27.7,11111222
Amerada Hess,ioos:station:wmo:42401:1,2020-07-01T15:19:00Z,27.5093,-90.5564,26.0,27.6,11111222
Amerada Hess,ioos:station:wmo:42401:1,2020-07-01T15:39:00Z,27.5093,-90.5564,26.0,27.6,11111222
Amerada Hess,ioos:station:wmo:42401:1,2020-07-01T15:59:00Z,27.5093,-90.5564,26.0,27.6,11111222
Amerada Hess,ioos:station:wmo:42401:1,2020-07-01T16:19:00Z,27.5093,-90.5564,26.0,27.6,11111222
Amerada Hess,ioos:station:wmo:42401:1,2020-07-01T16:39:00Z,27.5093,-90.5564,26.0,27.7,11111222
Amerada Hess,ioos:station:wmo:42401:1,2020-07-01T16:59:00Z,27.5093,-90.5564,26.0,27.7,11111222
Amerada Hess,ioos:station:wmo:42401:1,2020-07-01T17:19:00Z,27.5093,-90.5564,26.0,27.7,11111222
Amerada Hess,ioos:station:wmo:42401:1,2020-07-01T17:39:00Z,27.5093,-90.5564,26.0,27.6,11111222
Amerada Hess,ioos:station:wmo:42401:1,2020-07-01T17:59:00Z,27.5093,-90.5564,26.0,27.6,11111222
Amerada Hess,ioos:station:wmo:42401:1,2020-07-01T18:18:00Z,27.5093,-90.5564,26.0,27.7,11111222
Amerada Hess,ioos:station:wmo:42401:1,2020-07-01T18:37:00Z,27.5093,-90.5564,26.0,27.7,11111222
Amerada Hess,ioos:station:wmo:42401:1,2020-07-01T18:57:00Z,27.5093,-90.5564,26.0,27.7,11111222
Amerada Hess,ioos:station:wmo:42401:1,2020-07-01T19:16:00Z,27.5093,-90.5564,26.0,27.7,11111222
Amerada Hess,ioos:station:wmo:42401:1,2020-07-01T19:36:00Z,27.5093,-90.5564,26.0,27.7,11111222
Amerada Hess,ioos:station:wmo:42401:1,2020-07-01T19:56:00Z,27.5093,-90.5564,26.0,27.8,11111222
Amerada Hess,ioos:station:wmo:42401:1,2020-07-01T20:15:00Z,27.5093,-90.5564,26.0,27.8,11111222
Amerada Hess,ioos:station:wmo:42401:1,2020-07-01T20:35:00Z,27.5093,-90.5564,26.0,27.8,11111222
Amerada Hess,ioos:station:wmo:42401:1,2020-07-01T20:55:00Z,27.5093,-90.5564,26.0,27.7,11111222
Amerada Hess,ioos:station:wmo:42401:1,2020-07-01T21:15:00Z,27.5093,-90.5564,26.0,27.6,11111222
Amerada Hess,ioos:station:wmo:42401:1,2020-07-01T21:35:00Z,27.5093,-90.5564,26.0,27.7,11111222
Amerada Hess,ioos:station:wmo:42401:1,2020-07-01T21:55:00Z,27.5093,-90.5564,26.0,27.7,11111222
Amerada Hess,ioos:station:wmo:42401:1,2020-07-01T22:15:00Z,27.5093,-90.5564,26.0,27.6,11111222
Amerada Hess,ioos:station:wmo:42401:1,2020-07-01T22:35:00Z,27.5093,-90.5564,26.0,27.6,11111222
Amerada Hess,ioos:station:wmo:42401:1,2020-07-01T22:55:00Z,27.5093,-90.5564,26.0,27.6,11111222
Amerada Hess,ioos:station:wmo:42401:1,2020-07-01T23:15:00Z,27.5093,-90.5564,26.0,27.6,11111222
Amerada Hess,ioos:station:wmo:42401:1,2020-07-01T23:35:00Z,27.5093,-90.5564,26.0,27.5,11111222
Amerada Hess,ioos:station:wmo:42401:1,2020-07-01T23:55:00Z,27.5093,-90.5564,26.0,27.5,11111222
Amerada Hess,ioos:station:wmo:42401:1,2020-07-02T00:15:00Z,27.5093,-90.5564,26.0,27.4,11111222
Amerada Hess,ioos:station:wmo:42401:1,2020-07-02T00:35:00Z,27.5093,-90.5564,26.0,27.4,11111222
Amerada Hess,ioos:station:wmo:42401:1,2020-07-02T00:55:00Z,27.5093,-90.5564,26.0,27.4,11111222
Amerada Hess,ioos:station:wmo:42401:1,2020-07-02T01:15:00Z,27.5093,-90.5564,26.0,27.4,11111222
Amerada Hess,ioos:station:wmo:42401:1,2020-07-02T01:35:00Z,27.5093,-90.5564,26.0,27.3,11111222
Amerada Hess,ioos:station:wmo:42401:1,2020-07-02T01:55:00Z,27.5093,-90.5564,26.0,27.3,11111222
Amerada Hess,ioos:station:wmo:42401:1,2020-07-02T02:15:00Z,27.5093,-90.5564,26.0,27.3,11111222
Amerada Hess,ioos:station:wmo:42401:1,2020-07-02T02:35:00Z,27.5093,-90.5564,26.0,27.3,11111222
Amerada Hess,ioos:station:wmo:42401:1,2020-07-02T02:55:00Z,27.5093,-90.5564,26.0,27.3,11111222
Amerada Hess,ioos:station:wmo:42401:1,2020-07-02T03:15:00Z,27.5093,-90.5564,26.0,27.5,11111222
Amerada Hess,ioos:station:wmo:42401:1,2020-07-02T03:35:00Z,27.5093,-90.5564,26.0,27.5,11111222
Amerada Hess,ioos:station:wmo:42401:1,2020-07-02T03:55:00Z,27.5093,-90.5564,26.0,27.5,11111222
Amerada Hess,ioos:station:wmo:42401:1,2020-07-02T04:15:00Z,27.5093,-90.5564,26.0,27.8,11111222
Amerada Hess,ioos:station:wmo:42401:1,2020-07-02T04:35:00Z,27.5093,-90.5564,26.0,27.8,11111222
Amerada Hess,ioos:station:wmo:42401:1,2020-07-02T04:55:00Z,27.5093,-90.5564,26.0,27.7,11111222
Amerada Hess,ioos:station:wmo:42401:1,2020-07-02T05:15:00Z,27.5093,-90.5564,26.0,27.7,11111222
Amerada Hess,ioos:station:wmo:42401:1,2020-07-02T05:35:00Z,27.5093,-90.5564,26.0,27.3,11111222
Amerada Hess,ioos:station:wmo:42401:1,2020-07-02T05:55:00Z,27.5093,-90.5564,26.0,27.0,11111222
Amerada Hess,ioos:station:wmo:42401:1,2020-07-02T06:15:00Z,27.5093,-90.5564,26.0,26.9,11111222
Amerada Hess,ioos:station:wmo:42401:1,2020-07-02T06:35:00Z,27.5093,-90.5564,26.0,26.7,11111222
Amerada Hess,ioos:station:wmo:42401:1,2020-07-02T06:55:00Z,27.5093,-90.5564,26.0,26.8,11111222
Amerada Hess,ioos:station:wmo:42401:1,2020-07-02T07:15:00Z,27.5093,-90.5564,26.0,26.9,11111222
Amerada Hess,ioos:station:wmo:42401:1,2020-07-02T07:35:00Z,27.5093,-90.5564,26.0,26.9,11111222
Amerada Hess,ioos:station:wmo:42401:1,2020-07-02T07:55:00Z,27.5093,-90.5564,26.0,27.0,11111222
Amerada Hess,ioos:station:wmo:42401:1,2020-07-02T08:15:00Z,27.5093,-90.5564,26.0,27.1,11111222
Amerada Hess,ioos:station:wmo:42401:1,2020-07-02T08:35:00Z,27.5093,-90.5564,26.0,27.2,11111222
Amerada Hess,ioos:station:wmo:42401:1,2020-07-02T08:55:00Z,27.5093,-90.5564,26.0,27.3,11111222
Amerada Hess,ioos:station:wmo:42401:1,2020-07-02T09:15:00Z,27.5093,-90.5564,26.0,27.3,11111222
Amerada Hess,ioos:station:wmo:42401:1,2020-07-02T09:35:00Z,27.5093,-90.5564,26.0,27.4,11111222
Amerada Hess,ioos:station:wmo:42401:1,2020-07-02T09:54:00Z,27.5093,-90.5564,26.0,27.4,11111222
Amerada Hess,ioos:station:wmo:42401:1,2020-07-02T10:14:00Z,27.5093,-90.5564,26.0,27.5,11111222
Amerada Hess,ioos:station:wmo:42401:1,2020-07-02T10:34:00Z,27.5093,-90.5564,26.0,27.4,11111222
Amerada Hess,ioos:station:wmo:42401:1,2020-07-02T10:54:00Z,27.5093,-90.5564,26.0,27.4,11111222
Amerada Hess,ioos:station:wmo:42401:1,2020-07-02T11:13:00Z,27.5093,-90.5564,26.0,27.4,11111222
Amerada Hess,ioos:station:wmo:42401:1,2020-07-02T11:32:00Z,27.5093,-90.5564,26.0,27.3,11111222
Amerada Hess,ioos:station:wmo:42401:1,2020-07-02T11:52:00Z,27.5093,-90.5564,26.0,27.3,11111222
Amerada Hess,ioos:station:wmo:42401:1,2020-07-02T12:12:00Z,27.5093,-90.5564,26.0,27.4,11111222
Amerada Hess,ioos:station:wmo:42401:1,2020-07-02T12:32:00Z,27.5093,-90.5564,26.0,27.5,11111222
Amerada Hess,ioos:station:wmo:42401:1,2020-07-02T12:52:00Z,27.5093,-90.5564,26.0,27.4,11111222
Amerada Hess,ioos:station:wmo:42401:1,2020-07-02T13:12:00Z,27.5093,-90.5564,26.0,27.4,11111222
Amerada Hess,ioos:station:wmo:42401:1,2020-07-02T13:32:00Z,27.5093,-90.5564,26.0,27.5,11111222
Amerada Hess,ioos:station:wmo:42401:1,2020-07-02T13:52:00Z,27.5093,-90.5564,26.0,27.5,11111222
Amerada Hess,ioos:station:wmo:42401:1,2020-07-02T14:12:00Z,27.5093,-90.5564,26.0,27.4,11111222
Amerada Hess,ioos:station:wmo:42401:1,2020-07-02T14:32:00Z,27.5093,-90.5564,26.0,27.3,11111222
Amerada Hess,ioos:station:wmo:42401:1,2020-07-02T14:52:00Z,27.5093,-90.5564,26.0,27.3,11111222
Amerada Hess,ioos:station:wmo:42401:1,2020-07-02T15:12:00Z,27.5093,-90.5564,26.0,27.3,11111222
Amerada Hess,ioos:station:wmo:42401:1,2020-07-02T15:32:00Z,27.5093,-90.5564,26.0,27.3,11111222
Amerada Hess,ioos:station:wmo:42401:1,2020-07-02T15:52:00Z,27.5093,-90.5564,26.0,27.3,11111222
Amerada Hess,ioos:station:wmo:42401:1,2020-07-02T16:12:00Z,27.5093,-90.5564,26.0,27.4,11111222
Amerada Hess,ioos:station:wmo:42401:1,2020-07-02T16:32:00Z,27.5093,-90.5564,26.0,27.4,11111222
Amerada Hess,ioos:station:wmo:42401:1,2020-07-02T16:53:00Z,27.5093,-90.5564,26.0,27.3,11111222
Amerada Hess,ioos:station:wmo:42401:1,2020-07-02T17:12:00Z,27.5093,-90.5564,26.0,27.3,11111222
Amerada Hess,ioos:station:wmo:42401:1,2020-07-02T17:32:00Z,27.5093,-90.5564,26.0,27.3,11111222
Amerada Hess,ioos:station:wmo:42401:1,2020-07-02T17:52:00Z,27.5093,-90.5564,26.0,27.3,11111222
Amerada Hess,ioos:station:wmo:42401:1,2020-07-02T18:12:00Z,27.5093,-90.5564,26.0,27.4,11111222
Amerada Hess,ioos:station:wmo:42401:1,2020-07-02T18:32:00Z,27.5093,-90.5564,26.0,27.4,11111222
Amerada Hess,ioos:station:wmo:42401:1,2020-07-02T18:52:00Z,27.5093,-90.5564,26.0,27.4,11111222
Amerada Hess,ioos:station:wmo:42401:1,2020-07-02T19:12:00Z,27.5093,-90.5564,26.0,27.3,11111222
Amerada Hess,ioos:station:wmo:42401:1,2020-07-02T19:32:00Z,27.5093,-90.5564,26.0,27.3,11111222
Amerada Hess,ioos:station:wmo:42401:1,2020-07-02T19:52:00Z,27.5093,-90.5564,26.0,27.3,11111222
Amerada Hess,ioos:station:wmo:42401:1,2020-07-02T20:12:00Z,27.5093,-90.5564,26.0,27.5,11111222
Amerada Hess,ioos:station:wmo:42401:1,2020-07-02T20:32:00Z,27.5093,-90.5564,26.0,27.5,11111222
Amerada Hess,ioos:station:wmo:42401:1,2020-07-02T20:52:00Z,27.5093,-90.5564,26.0,27.5,11111222
Amerada Hess,ioos:station:wmo:42401:1,2020-07-02T21:12:00Z,27.5093,-90.5564,26.0,27.4,11111222
Amerada Hess,ioos:station:wmo:42401:1,2020-07-02T21:32:00Z,27.5093,-90.5564,26.0,27.4,11111222
Amerada Hess,ioos:station:wmo:42401:1,2020-07-02T21:52:00Z,27.5093,-90.5564,26.0,27.4,11111222
Amerada Hess,ioos:station:wmo:42401:1,2020-07-02T22:12:00Z,27.5093,-90.5564,26.0,27.4,11111222
Amerada Hess,ioos:station:wmo:42401:1,2020-07-02T22:31:00Z,27.5093,-90.5564,26.0,27.4,11111222
Amerada Hess,ioos:station:wmo:42401:1,2020-07-02T22:51:00Z,27.5093,-90.5564,26.0,27.4,11111222
Amerada Hess,ioos:station:wmo:42401:1,2020-07-02T23:11:00Z,27.5093,-90.5564,26.0,27.4,11111222
Amerada Hess,ioos:station:wmo:42401:1,2020-07-02T23:31:00Z,27.5093,-90.5564,26.0,27.5,11111222
Amerada Hess,ioos:station:wmo:42401:1,2020-07-02T23:51:00Z,27.5093,-90.5564,26.0,27.5,11111222
Amerada Hess,ioos:station:wmo:42401:1,2020-07-03T00:11:00Z,27.5093,-90.5564,26.0,27.4,11111222
Amerada Hess,ioos:station:wmo:42401:1,2020-07-03T00:31:00Z,27.5093,-90.5564,26.0,27.4,11111222
Amerada Hess,ioos:station:wmo:42401:1,2020-07-03T00:51:00Z,27.5093,-90.5564,26.0,27.4,11111222
Amerada Hess,ioos:station:wmo:42401:1,2020-07-03T01:11:00Z,27.5093,-90.5564,26.0,27.5,11111222
Amerada Hess,ioos:station:wmo:42401:1,2020-07-03T01:31:00Z,27.5093,-90.5564,26.0,27.5,11111222
Amerada Hess,ioos:station:wmo:42401:1,2020-07-03T01:51:00Z,27.5093,-90.5564,26.0,27.5,11111222
Amerada Hess,ioos:station:wmo:42401:1,2020-07-03T02:11:00Z,27.5093,-90.5564,26.0,27.6,11111222
Amerada Hess,ioos:station:wmo:42401:1,2020-07-03T02:31:00Z,27.5093,-90.5564,26.0,27.6,11111222
Amerada Hess,ioos:station:wmo:42401:1,2020-07-03T02:50:00Z,27.5093,-90.5564,26.0,27.5,11111222
Amerada Hess,ioos:station:wmo:42401:1,2020-07-03T03:10:00Z,27.5093,-90.5564,26.0,27.5,11111222
Amerada Hess,ioos:station:wmo:42401:1,2020-07-03T03:30:00Z,27.5093,-90.5564,26.0,27.6,11111222
Amerada Hess,ioos:station:wmo:42401:1,2020-07-03T03:50:00Z,27.5093,-90.5564,26.0,27.6,11111222
Amerada Hess,ioos:station:wmo:42401:1,2020-07-03T04:10:00Z,27.5093,-90.5564,26.0,27.6,11111222
Amerada Hess,ioos:station:wmo:42401:1,2020-07-03T04:30:00Z,27.5093,-90.5564,26.0,27.6,11111222
Amerada Hess,ioos:station:wmo:42401:1,2020-07-03T04:50:00Z,27.5093,-90.5564,26.0,27.6,11111222
Amerada Hess,ioos:station:wmo:42401:1,2020-07-03T05:10:00Z,27.5093,-90.5564,26.0,27.6,11111222
Amerada Hess,ioos:station:wmo:42401:1,2020-07-03T05:30:00Z,27.5093,-90.5564,26.0,27.6,11111222
Amerada Hess,ioos:station:wmo:42401:1,2020-07-03T05:50:00Z,27.5093,-90.5564,26.0,27.6,11111222
Amerada Hess,ioos:station:wmo:42401:1,2020-07-03T06:10:00Z,27.5093,-90.5564,26.0,27.6,11111222
Amerada Hess,ioos:station:wmo:42401:1,2020-07-03T06:30:00Z,27.5093,-90.5564,26.0,27.6,11111222
Amerada Hess,ioos:station:wmo:42401:1,2020-07-03T06:50:00Z,27.5093,-90.5564,26.0,27.6,11111222
Amerada Hess,ioos:station:wmo:42401:1,2020-07-03T07:10:00Z,27.5093,-90.5564,26.0,27.6,11111222
Amerada Hess,ioos:station:wmo:42401:1,2020-07-03T07:30:00Z,27.5093,-90.5564,26.0,27.5,11111222
Amerada Hess,ioos:station:wmo:42401:1,2020-07-03T07:50:00Z,27.5093,-90.5564,26.0,27.5,11111222
Amerada Hess,ioos:station:wmo:42401:1,2020-07-03T08:09:00Z,27.5093,-90.5564,26.0,27.5,11111222
Amerada Hess,ioos:station:wmo:42401:1,2020-07-03T08:29:00Z,27.5093,-90.5564,26.0,27.6,11111222
Amerada Hess,ioos:station:wmo:42401:1,2020-07-03T08:49:00Z,27.5093,-90.5564,26.0,27.8,11111222
Amerada Hess,ioos:station:wmo:42401:1,2020-07-03T09:09:00Z,27.5093,-90.5564,26.0,27.8,11111222
Amerada Hess,ioos:station:wmo:42401:1,2020-07-03T09:29:00Z,27.5093,-90.5564,26.0,27.8,11111222
Amerada Hess,ioos:station:wmo:42401:1,2020-07-03T09:49:00Z,27.5093,-90.5564,26.0,27.8,11111222
Amerada Hess,ioos:station:wmo:42401:1,2020-07-03T10:09:00Z,27.5093,-90.5564,26.0,27.8,11111222
Amerada Hess,ioos:station:wmo:42401:1,2020-07-03T10:29:00Z,27.5093,-90.5564,26.0,27.6,11111222
Amerada Hess,ioos:station:wmo:42401:1,2020-07-03T10:49:00Z,27.5093,-90.5564,26.0,27.6,11111222
Amerada Hess,ioos:station:wmo:42401:1,2020-07-03T11:09:00Z,27.5093,-90.5564,26.0,27.6,11111222
Amerada Hess,ioos:station:wmo:42401:1,2020-07-03T11:29:00Z,27.5093,-90.5564,26.0,27.6,11111222
Amerada Hess,ioos:station:wmo:42401:1,2020-07-03T11:49:00Z,27.5093,-90.5564,26.0,27.7,11111222
Amerada Hess,ioos:station:wmo:42401:1,2020-07-03T12:09:00Z,27.5093,-90.5564,26.0,27.7,11111222
Amerada Hess,ioos:station:wmo:42401:1,2020-07-03T12:28:00Z,27.5093,-90.5564,26.0,27.7,11111222
Amerada Hess,ioos:station:wmo:42401:1,2020-07-03T12:48:00Z,27.5093,-90.5564,26.0,27.7,11111222
Amerada Hess,ioos:station:wmo:42401:1,2020-07-03T13:08:00Z,27.5093,-90.5564,26.0,27.7,11111222
Amerada Hess,ioos:station:wmo:42401:1,2020-07-03T13:28:00Z,27.5093,-90.5564,26.0,27.7,11111222
Amerada Hess,ioos:station:wmo:42401:1,2020-07-03T13:48:00Z,27.5093,-90.5564,26.0,27.7,11111222
Amerada Hess,ioos:station:wmo:42401:1,2020-07-03T14:08:00Z,27.5093,-90.5564,26.0,27.8,11111222
Amerada Hess,ioos:station:wmo:42401:1,2020-07-03T14:28:00Z,27.5093,-90.5564,26.0,27.8,11111222
Amerada Hess,ioos:station:wmo:42401:1,2020-07-03T14:48:00Z,27.5093,-90.5564,26.0,27.8,11111222
Amerada Hess,ioos:station:wmo:42401:1,2020-07-03T15:08:00Z,27.5093,-90.5564,26.0,27.8,11111222
Amerada Hess,ioos:station:wmo:42401:1,2020-07-03T15:28:00Z,27.5093,-90.5564,26.0,27.8,11111222
Amerada Hess,ioos:station:wmo:42401:1,2020-07-03T15:48:00Z,27.5093,-90.5564,26.0,27.8,11111222
Amerada Hess,ioos:station:wmo:42401:1,2020-07-03T16:08:00Z,27.5093,-90.5564,26.0,27.8,11111222
Amerada Hess,ioos:station:wmo:42401:1,2020-07-03T16:28:00Z,27.5093,-90.5564,26.0,27.8,11111222
Amerada Hess,ioos:station:wmo:42401:1,2020-07-03T16:48:00Z,27.5093,-90.5564,26.0,27.8,11111222
Amerada Hess,ioos:station:wmo:42401:1,2020-07-03T17:08:00Z,27.5093,-90.5564,26.0,27.8,11111222
Amerada Hess,ioos:station:wmo:42401:1,2020-07-03T17:28:00Z,27.5093,-90.5564,26.0,27.8,11111222
Amerada Hess,ioos:station:wmo:42401:1,2020-07-03T17:48:00Z,27.5093,-90.5564,26.0,27.8,11111222
Amerada Hess,ioos:station:wmo:42401:1,2020-07-03T18:08:00Z,27.5093,-90.5564,26.0,27.7,11111222
Amerada Hess,ioos:station:wmo:42401:1,2020-07-03T18:28:00Z,27.5093,-90.5564,26.0,27.6,11111222
Amerada Hess,ioos:station:wmo:42401:1,2020-07-03T18:48:00Z,27.5093,-90.5564,26.0,27.7,11111222
Amerada Hess,ioos:station:wmo:42401:1,2020-07-03T19:08:00Z,27.5093,-90.5564,26.0,27.9,11111222
Amerada Hess,ioos:station:wmo:42401:1,2020-07-03T19:28:00Z,27.5093,-90.5564,26.0,27.9,11111222
Amerada Hess,ioos:station:wmo:42401:1,2020-07-03T19:48:00Z,27.5093,-90.5564,26.0,27.8,11111222
Amerada Hess,ioos:station:wmo:42401:1,2020-07-03T20:08:00Z,27.5093,-90.5564,26.0,27.7,11111222
Amerada Hess,ioos:station:wmo:42401:1,2020-07-03T20:27:00Z,27.5093,-90.5564,26.0,27.6,11111222
Amerada Hess,ioos:station:wmo:42401:1,2020-07-03T20:47:00Z,27.5093,-90.5564,26.0,27.7,11111222
Amerada Hess,ioos:station:wmo:42401:1,2020-07-03T21:07:00Z,27.5093,-90.5564,26.0,27.6,11111222
Amerada Hess,ioos:station:wmo:42401:1,2020-07-03T21:27:00Z,27.5093,-90.5564,26.0,27.5,11111222
Amerada Hess,ioos:station:wmo:42401:1,2020-07-03T21:47:00Z,27.5093,-90.5564,26.0,27.5,11111222
Amerada Hess,ioos:station:wmo:42401:1,2020-07-03T22:07:00Z,27.5093,-90.5564,26.0,27.6,11111222
Amerada Hess,ioos:station:wmo:42401:1,2020-07-03T22:27:00Z,27.5093,-90.5564,26.0,27.5,11111222
Amerada Hess,ioos:station:wmo:42401:1,2020-07-03T22:47:00Z,27.5093,-90.5564,26.0,27.6,11111222
Amerada Hess,ioos:station:wmo:42401:1,2020-07-03T23:07:00Z,27.5093,-90.5564,26.0,27.7,11111222
Amerada Hess,ioos:station:wmo:42401:1,2020-07-03T23:27:00Z,27.5093,-90.5564,26.0,27.6,11111222
Amerada Hess,ioos:station:wmo:42401:1,2020-07-03T23:47:00Z,27.5093,-90.5564,26.0,27.6,11111222
Amerada Hess,ioos:station:wmo:42401:1,2020-07-04T00:07:00Z,27.5093,-90.5564,26.0,27.6,11111222
Amerada Hess,ioos:station:wmo:42401:1,2020-07-04T00:47:00Z,27.5093,-90.5564,26.0,27.7,11111222
Amerada Hess,ioos:station:wmo:42401:1,2020-07-04T00:27:00Z,27.5093,-90.5564,26.0,27.7,11111222
Amerada Hess,ioos:station:wmo:42401:1,2020-07-04T01:07:00Z,27.5093,-90.5564,26.0,27.7,11111222
Amerada Hess,ioos:station:wmo:42401:1,2020-07-04T01:27:00Z,27.5093,-90.5564,26.0,27.7,11111222
Amerada Hess,ioos:station:wmo:42401:1,2020-07-04T01:47:00Z,27.5093,-90.5564,26.0,27.7,11111222
Amerada Hess,ioos:station:wmo:42401:1,2020-07-04T02:07:00Z,27.5093,-90.5564,26.0,27.8,11111222
Amerada Hess,ioos:station:wmo:42401:1,2020-07-04T02:27:00Z,27.5093,-90.5564,26.0,27.8,11111222
Amerada Hess,ioos:station:wmo:42401:1,2020-07-04T02:47:00Z,27.5093,-90.5564,26.0,27.8,11111222
Amerada Hess,ioos:station:wmo:42401:1,2020-07-04T03:07:00Z,27.5093,-90.5564,26.0,27.8,11111222
Amerada Hess,ioos:station:wmo:42401:1,2020-07-04T03:27:00Z,27.5093,-90.5564,26.0,27.8,11111222
Amerada Hess,ioos:station:wmo:42401:1,2020-07-04T03:47:00Z,27.5093,-90.5564,26.0,27.9,11111222
Amerada Hess,ioos:station:wmo:42401:1,2020-07-04T04:07:00Z,27.5093,-90.5564,26.0,27.9,11111222
Amerada Hess,ioos:station:wmo:42401:1,2020-07-04T04:27:00Z,27.5093,-90.5564,26.0,27.9,11111222
Amerada Hess,ioos:station:wmo:42401:1,2020-07-04T04:47:00Z,27.5093,-90.5564,26.0,27.9,11111222
Amerada Hess,ioos:station:wmo:42401:1,2020-07-04T05:07:00Z,27.5093,-90.5564,26.0,27.8,11111222
Amerada Hess,ioos:station:wmo:42401:1,2020-07-04T05:27:00Z,27.5093,-90.5564,26.0,27.8,11111222
Amerada Hess,ioos:station:wmo:42401:1,2020-07-04T05:47:00Z,27.5093,-90.5564,26.0,27.9,11111222
Amerada Hess,ioos:station:wmo:42401:1,2020-07-04T06:07:00Z,27.5093,-90.5564,26.0,27.9,11111222
Amerada Hess,ioos:station:wmo:42401:1,2020-07-04T06:27:00Z,27.5093,-90.5564,26.0,27.9,11111222
Amerada Hess,ioos:station:wmo:42401:1,2020-07-04T06:47:00Z,27.5093,-90.5564,26.0,27.9,11111222
Amerada Hess,ioos:station:wmo:42401:1,2020-07-04T07:07:00Z,27.5093,-90.5564,26.0,28.0,11111222
Amerada Hess,ioos:station:wmo:42401:1,2020-07-04T07:27:00Z,27.5093,-90.5564,26.0,28.0,11111222
Amerada Hess,ioos:station:wmo:42401:1,2020-07-04T07:47:00Z,27.5093,-90.5564,26.0,27.9,11111222
Amerada Hess,ioos:station:wmo:42401:1,2020-07-04T08:07:00Z,27.5093,-90.5564,26.0,27.9,11111222
Amerada Hess,ioos:station:wmo:42401:1,2020-07-04T08:27:00Z,27.5093,-90.5564,26.0,27.9,11111222
Amerada Hess,ioos:station:wmo:42401:1,2020-07-04T08:47:00Z,27.5093,-90.5564,26.0,27.7,11111222
Amerada Hess,ioos:station:wmo:42401:1,2020-07-04T09:07:00Z,27.5093,-90.5564,26.0,27.7,11111222
Amerada Hess,ioos:station:wmo:42401:1,2020-07-04T09:27:00Z,27.5093,-90.5564,26.0,27.6,11111222
Amerada Hess,ioos:station:wmo:42401:1,2020-07-04T09:47:00Z,27.5093,-90.5564,26.0,28.0,11111222
Amerada Hess,ioos:station:wmo:42401:1,2020-07-04T10:07:00Z,27.5093,-90.5564,26.0,27.9,11111222
Amerada Hess,ioos:station:wmo:42401:1,2020-07-04T10:27:00Z,27.5093,-90.5564,26.0,28.0,11111222